Regional Weather Roundup
Issued by NWS

Home | Current Version | Previous Version | Graphics & Text | Print | Product List | Glossary On
Versions: 1 2 3 4 5 6 7 8 9 10 11 12 13 14 15 16 17 18 19 20 21 22 23 24 25 26 27 28 29 30 31 32 33 34 35 36 37 38 39 40 41 42 43 44 45 46 47 48 49 50
000
ASUS43 KMPX 160601
RWRMN
WEATHER ROUNDUP FOR MINNESOTA
NATIONAL WEATHER SERVICE TWIN CITIES/CHANHASSEN MN
1200 AM CST MON JAN 16 2017


NOTE: "FAIR" INDICATES FEW OR NO CLOUDS BELOW 12,000 FEET WITH NO
SIGNIFICANT WEATHER AND/OR OBSTRUCTIONS TO VISIBILITY. N/A MEANS
CURRENT SKY AND/OR WEATHER CONDITIONS ARE NOT AVAILABLE.

MNZ060>063-068>070-160700-
   Twin Cities Metro

CITY           SKY/WX    TMP DP  RH WIND       PRES   REMARKS
TWIN CITIES    CLOUDY    19  14  81 S7        30.20F WCI  10
6HR MIN TEMP:  19; 6HR MAX TEMP:  28;

ST PAUL        CLOUDY    17  15  92 SE7       30.23F FOG     WCI   8
CRYSTAL        CLOUDY    20  14  77 S6        30.18F WCI  12
BLAINE         CLOUDY    19  18  93 S6        30.18F WCI  11
LAKEVILLE      CLOUDY    19  18  93 CALM      30.21S
EDEN PRAIRIE   CLOUDY    22  15  75 S8        30.19F WCI  12
6HR MIN TEMP:  19; 6HR MAX TEMP:  26;

SOUTH ST PAUL  CLOUDY    17  14  89 CALM      30.22F FOG
LAKE ELMO      FAIR      19  18  93 S3        30.21F
$$
MNZ001>005-007-008-013>017-022>024-027-028-160700-
   Northwest Minnesota

CITY           SKY/WX    TMP DP  RH WIND       PRES   REMARKS
BEMIDJI        CLOUDY    17  14  88 S5        30.04S WCI  10
HALLOCK        CLOUDY     9   3  78 S10       29.99S WCI  -6
ROSEAU         CLOUDY    16   9  73 S9        29.98S WCI   4
WARROAD        CLOUDY    18  10  73 SW9       29.99R WCI   6
THIEF RVR FALL CLOUDY    13   9  84 SW12      30.04R WCI  -1
CROOKSTON      CLOUDY    12   9  85 S16       30.06S WCI  -4
FOSSTON        CLEAR     16  12  86 S16       30.05S WCI   0
DETROIT LAKES  CLOUDY    18  16  93 CALM      30.09R
MOORHEAD       CLEAR     12   9  85 S10       30.10S WCI  -1
PARK RAPIDS    CLOUDY    13   7  77 CALM      30.07R HAZE
MAHNOMEN       FAIR      16  13  87 S12       30.06S WCI   3
$$
MNZ006-009>011-018-025>026-160700-
   North Central Minnesota

CITY           SKY/WX    TMP DP  RH WIND       PRES   REMARKS
BAUDETTE       CLOUDY    10   5  80 SE5       29.99R WCI   2
FLAG ISLAND    CLOUDY     9   3  78 SE6       29.97S WCI  -1
INTL FALLS     CLOUDY    14   9  80 SW6       30.01S WCI   5
6HR MIN TEMP:  12; 6HR MAX TEMP:  26;

WASKISH        CLOUDY    18  12  79 S3        30.03R
BIG FORK       CLOUDY    18  12  79 S6        30.05S WCI   9
LONGVILLE      CLOUDY    18  16  93 S6        30.09R WCI   9
GRAND RAPIDS   CLOUDY    17  13  84 S6        30.09F WCI   9
CRANE LAKE     CLOUDY    21  16  79 S3        30.06R
ORR            CLOUDY    19  12  73 CALM      30.02S
COOK           CLOUDY    21  16  79 SW6       30.06R WCI  14
WALKER         FAIR      18  15  85 S6        30.07R WCI  10
$$
MNZ012-019>021-037-160700-
   Northeast Minnesota

CITY           SKY/WX    TMP DP  RH WIND       PRES   REMARKS
DULUTH         CLOUDY    22  17  81 SW12      30.10S WCI  10
6HR MIN TEMP:  21; 6HR MAX TEMP:  24;

ELY            CLOUDY    19  12  73 SW6       30.05R WCI  11
HIBBING        CLOUDY    16  13  88 S3        30.08S
EVELETH        CLOUDY    13  10  90 S3        30.09F
DULUTH HARBOR  CLOUDY    21  16  79 CALM      30.16F
TWO HARBORS    CLOUDY    19  14  79 W5        30.10S WCI  13
SILVER BAY     CLEAR     21  18  86 CALM      30.08S
GRAND MARAIS     N/A     27  15  61 W7        30.08S WCI  19
G MARAIS ARPRT CLOUDY    18   9  68 SW5       30.01F WCI  11
$$
MNZ029>031-032-039>041-046>048-054>057-064-160700-
   West Central Minnesota

CITY           SKY/WX    TMP DP  RH WIND       PRES   REMARKS
FERGUS FALLS   CLOUDY    16  10  79 S8        30.16S WCI   5
WHEATON        CLOUDY    16  14  93 SE8       30.13S WCI   5
MORRIS         CLOUDY    12  10  92 S7        30.11F WCI   2
ALEXANDRIA     CLOUDY    18  15  88 SW8       30.11F WCI   8
ELBOW LAKE     FAIR      15  13  91 E9        30.11F FOG     WCI   3
WADENA         CLOUDY    18  14  86 SW7       30.09S WCI   8
GLENWOOD       CLOUDY    18  16  93 S13       30.12F WCI   4
APPLETON       CLOUDY    21  16  79 S5        30.13F WCI  15
ORTONVILLE     CLOUDY    14  10  85 CALM      30.12F
MADISON        CLOUDY    18  16  93 S7        30.15S WCI   8
WILLMAR        FAIR      16  16 100 CALM      30.16S
$$
MNZ033>034-036-042>043-049>051-058-059-160700-
   Central Minnesota

CITY           SKY/WX    TMP DP  RH WIND       PRES   REMARKS
ST CLOUD       CLOUDY    16  15  96 S6        30.16S WCI   7
6HR MIN TEMP:  12; 6HR MAX TEMP:  21;

SAUK CENTRE    FAIR      14  12  90 SE3       30.13F
PAYNESVILLE    CLOUDY    18  17  99 CALM      30.15F
AITKIN         CLOUDY    16  10  79 CALM      30.10S HAZE
PINE RIVER     CLOUDY     9   7  92 S3        30.13R FOG
BRAINERD       CLOUDY    15  13  91 S7        30.11S FOG     WCI   5
STAPLES        CLOUDY    12  12 100 CALM      30.10S
LONG PRAIRIE   FAIR      12  12 100 S5        30.13S FOG     WCI   4
LITTLE FALLS     N/A     14  12  92 SE5       30.14F FOG     WCI   6
LITCHFIELD     CLOUDY    19  18  93 CALM      30.17R
BUFFALO        CLOUDY    21  17  87 S3        30.19S
MAPLE LAKE     CLOUDY    21  19  93 S5        30.17F WCI  14
HUTCHINSON     CLOUDY    15  13  94 CALM      30.18F
$$
MNZ037-044-045-052-053-160700-
   East Central Minnesota

CITY           SKY/WX    TMP DP  RH WIND       PRES   REMARKS
PRINCETON      CLOUDY    21  19  93 S5        30.16S WCI  15
MORA           CLOUDY     9   5  85 CALM      30.17F FOG
CAMBRIDGE      CLOUDY    21  14  73 S6        30.15F WCI  14
RUSH CITY        N/A     16  14  93 S3        30.18F
MOOSE LAKE     CLOUDY    14  12  92 SW3       30.13S FOG
HINCKLEY         N/A     12  10  92 CALM      30.16S FOG
CLOQUET        CLOUDY    19  16  86 S8        30.11S WCI   9
MCGREGOR       CLOUDY    19  18  93 CALM      30.12S
$$
MNZ071>073-080-081-089-090-097-098-160700-
   Southwest Minnesota

CITY           SKY/WX    TMP DP  RH WIND       PRES   REMARKS
MONTEVIDEO     CLOUDY    19  18  93 SW6       30.17S WCI  11
GRANITE FALLS  CLOUDY    20  17  90 SE5       30.18R WCI  13
CANBY          CLOUDY    26  19  73 CALM      30.14S
MARSHALL       PTCLDY    19  14  81 S7        30.15S WCI  10
REDWOOD FALLS  CLOUDY    20  15  81 S9        30.16F WCI   9
OLIVIA         CLOUDY    21  18  86 SE5       30.16S WCI  15
PIPESTONE      CLOUDY    21  16  79 SW3       30.12F
WINDOM         CLOUDY    23  19  86 CALM      30.16R
WORTHINGTON    CLOUDY    24  20  84 S7        30.15S WCI  16
JACKSON        CLOUDY    23  19  86 S5        30.16S WCI  17
TRACY          CLOUDY    26  17  67 S8        30.15S WCI  18
SLAYTON        CLOUDY    22  17  82 S5        30.14S WCI  16
$$
MNZ065>067-074>077-082>085-091>093-160700-
   South Central Minnesota

CITY           SKY/WX    TMP DP  RH WIND       PRES   REMARKS
MANKATO        CLOUDY    22  17  81 S8        30.20F WCI  12
NEW ULM        CLOUDY    21  16  79 S5        30.18S WCI  15
ST JAMES       CLOUDY    21  19  93 SE5       30.20S WCI  15
FAIRMONT       CLOUDY    22  19  89 S5        30.19S WCI  16
GLENCOE        CLOUDY    22  20  90 CALM      30.18S
FARIBAULT      CLOUDY    19  18  93 S3        30.21S
OWATONNA       CLOUDY    21  16  79 SE7       30.20S WCI  13
WASECA         CLOUDY    19  16  86 SE5       30.21F WCI  13
ALBERT LEA     CLOUDY    19  18  93 S6        30.20S WCI  11
$$
MNZ078>079-086>088-094>096-160700-
   Southeast Minnesota

CITY           SKY/WX    TMP DP  RH WIND       PRES   REMARKS
ROCHESTER      CLOUDY    16  14  92 S8        30.21S WCI   5
6HR MIN TEMP:  16; 6HR MAX TEMP:  19;

RED WING       CLOUDY    19  14  79 CALM      30.23F
STANTON        CLOUDY    19  14  83 S5        30.20F WCI  12
DODGE CENTER   CLOUDY    18  16  93 CALM      30.20S
WINONA         CLOUDY    10   9  92 CALM      30.27F
AUSTIN         CLOUDY    18  14  86 SE3       30.21S
PRESTON        CLOUDY    19  15  86 S3        30.23S
$$
ABBREVIATIONS USED IN REMARKS
   TC - TEMPERATURES IN CELSIUS
  WCI - WIND CHILL INDEX
   HX - HEAT INDEX
  VSB - VISIBILITY
$$



USA.gov is the U.S. government's official web portal to all federal, state and local government web resources and services.